FALCON 9 R/B, 58996

Orbit data source: Space-Track

FALCON 9 R/B, 58996 is space debris in HEO originally from a launch on Tue, 20 Feb 2024 UTC launched from the Air Force Eastern Test Range (AFETR). Debris objects in space refer to the collection of defunct objects orbiting the Earth. Examples of debris include non-operational satellites, rocket bodies, and fragments generated from explosions, collisions, or faulty payload assembly.

Loading next visibility...
FALCON 9 R/B details
Identifier
58996, 2024-035B
Orbit
HEO
Last TLE update2 days ago
Origin
Flag of USSpaceX (US)
ManufacturerSpaceX
MissionSpacecraft
Bus & MotorF9ST2, Unknown motor
Mass~4,000 kg wet, ~4,000 kg dry
Launch date (UTC)
2024-02-20 (10 months ago)
Launch vehicleUnknown
Launch site
Air Force Eastern Test Range (AFETR)
Object type
Payload
Rocket body
Debris
Shape & HBRCyl, 15.53 m
Radar Cross Section39.980 m², Large (>1 m²)

Expand to show TLE details & history

TLE from 2 days ago
0 FALCON 9 R/B
1 58996U 24035B   24355.42459040 -.00000017  00000-0  14698-3 0  9998
2 58996  19.1529 218.3048 7967733 303.4027   4.5034  1.39499415  4211
Epoch: 2024-12-20T10:11Z
Definitive object data (Epoch: 2024-12-20T10:11:24.61Z)
Latitude0.00228°
Longitude-23.69369°
Altitude2,284.332 km
Speed8.958 km/s
True Right ascension14h 34m 35s
True Declination0° 00' 08"
Sunlit
Object was in daylight at TLE epoch
Visualization TLE readout
Latitude14.65399°
Longitude106.81747°
Altitude53,280.816 km
Speed1.258 km/s
Apparent Right ascension22h 57m 20s
Apparent Declination10° 43' 18"
Sunlit
Object is in daylight
Visualization observer readout
Local Sidereal Time05:27:21
Azimuth283.009° WNW
Elevation1.199°
Doppler factor1
Orbital elements
Apogee altitude54,422.851 km
Perigee altitude498.849 km
Semi-major axis33,838.987 km
Eccentricity0.7967733
Inclination19.1529°
RAAN218.3048°
Arg. of periapsis303.4027°
True anomaly56.44747°
Mean anomaly4.5034°
Eccentric anomaly20.46443°
Mean motion0.34867 °/min
BSTAR0.00014698
Orbital period1032.49 mins
Loading maneuver chart data...
Loading historical data...
Loading historical data...
Loading historical data...
Loading historical data...
Loading historical data...
Loading historical data...
Loading historical data...
Other satellites on launch #35 in the year 2024 (2024-02-20 UTC)

FALCON 9 R/B Visibility forecast

Observer location: undefined°, undefined

Span
Click to sort rows by Start time (UTC) header in descending order
Start Az.
Max El. time (UTC)
Max El. Az.
Max El.
End time (UTC)
End Az.
838 mins2024-12-22 16:18:36.847Z80.956° E2024-12-23 00:05:36.847Z173.092° S41.188°2024-12-23 06:16:36.847Z199.12° SSW
|